Regional Weather Roundup
Issued by NWS Upton, NY

Current Version | Previous Version | Text Only | Print | Product List | Glossary On
Versions: 1 2 3 4 5 6 7 8 9 10 11 12 13 14 15 16 17 18 19 20 21 22 23 24 25 26 27 28 29 30 31 32 33 34 35 36 37 38 39 40 41 42 43 44 45 46 47
000 ASUS41 KOKX 271405 RWROKX REGIONAL WEATHER ROUNDUP NATIONAL WEATHER SERVICE NEW YORK NY 900 AM EST FRI FEB 27 2015 NOTE: "FAIR" INDICATES FEW OR NO CLOUDS BELOW 12,000 FEET WITH NO SIGNIFICANT WEATHER AND/OR OBSTRUCTIONS TO VISIBILITY. NYZ071-072-176-178-NJZ106-104-271500- NEW YORK CITY METRO AREA CITY SKY/WX TMP DP RH WIND PRES REMARKS CENTRAL PARK SUNNY 19 4 51 MISG 30.39R LAGUARDIA APRT MOSUNNY 20 6 55 NW14 30.39R WCI 7 KENNEDY INTL MOSUNNY 23 6 48 N13 30.39R WCI 11 NEWARK/LIBERTY MOSUNNY 20 7 57 N8 30.39R WCI 10 BRNX BOT. GARD N/A N/A N/A N/A E5 30.41R TETERBORO SUNNY 18 4 54 N8 30.39R WCI 8 $$ NYZ177-179-078>081-271500- LONG ISLAND NEW YORK CITY SKY/WX TMP DP RH WIND PRES REMARKS FARMINGDALE SUNNY 20 7 57 N9 30.37R WCI 9 ISLIP MOSUNNY 21 7 54 N13 30.34R WCI 9 SHIRLEY MIX PCPN 20 8 60 N14G20 30.36R WCI 7 WESTHAMPTON SUNNY 21 11 65 N12 30.35R WCI 9 MONTAUK POINT N/A 23 6 48 N9 30.35R WCI 13 $$ NYZ052-065-067-271500- HUDSON VALLEY CITY SKY/WX TMP DP RH WIND PRES REMARKS WHITE PLAINS SUNNY 16 2 54 N13 30.34R WCI 2 NEWBURGH SUNNY 12 1 62 CALM 30.37R MONTGOMERY SUNNY 10 0 63 CALM 30.37R POUGHKEEPSIE SUNNY 14 -1 51 NE6 30.40R WCI 5 ALBANY SUNNY 11 -3 53 N9 30.41R WCI -2 $$ NJZ001-105-106-008-010-013-015-019>022-104-271500- NEW JERSEY CITY SKY/WX TMP DP RH WIND PRES REMARKS NEWARK/LIBERTY MOSUNNY 20 7 57 N8 30.39R WCI 10 TETERBORO SUNNY 18 4 54 N8 30.39R WCI 8 CALDWELL SUNNY 17 3 54 VRB3 30.39R MORRISTOWN SUNNY 18 5 57 CALM 30.40R SOMERVILLE MOSUNNY 19 4 51 N6 30.38R WCI 11 SUSSEX SUNNY 15 0 51 VRB7 30.37R WCI 5 ANDOVER N/A 14 0 53 N8 30.37R WCI 3 TRENTON PTSUNNY 20 7 57 NW7 30.38R WCI 11 MILLVILLE PTSUNNY 24 15 68 NE7 30.38R WCI 16 ATLANTIC CITY PTSUNNY 24 13 62 N7 30.38R WCI 16 WRIGHTSTOWN SUNNY 22 10 60 NW10 30.36R WCI 11 TOMS RIVER SUNNY 23 12 63 N8 30.38R WCI 14 BELMAR SUNNY 21 9 58 NW10 30.36R WCI 10 $$ PAZ047>061-062-071-271500- EASTERN PENNSYLVANIA CITY SKY/WX TMP DP RH WIND PRES REMARKS PHILADELPHIA PTSUNNY 23 15 71 N8 30.41R WCI 14 ALLENTOWN CLOUDY 16 3 56 N7 30.40R WCI 6 SCRANTON FLURRIES 12 -1 56 N5 30.37R WCI 4 $$ CTZ002-004>006-009-010-012-RIZ004-006-007-MAZ004-011-015-271500- SOUTHERN NEW ENGLAND IN CT CITY SKY/WX TMP DP RH WIND PRES REMARKS BRADLEY INTL MOSUNNY 17 1 49 N5 30.36R WCI 10 HARTFORD SUNNY 16 2 54 N9 30.38R WCI 4 DANBURY SUNNY 15 -4 42 N7 30.36R WCI 5 WTRBRY/OXFORD MOSUNNY 12 -4 48 N8 30.32R WCI 1 BRIDGEPORT SUNNY 19 3 49 N8 30.36R WCI 9 MERIDEN SUNNY 17 2 51 N9 30.37R WCI 6 NEW HAVEN SUNNY 18 4 54 N13 30.36R WCI 5 CHESTER FAIR 18 5 57 N8 30.32R WCI 7 GROTON SUNNY 18 4 54 N12 30.34R WCI 5 WILLIMANTIC SUNNY 17 3 54 N12 30.34R WCI 4 IN RI CITY SKY/WX TMP DP RH WIND PRES REMARKS PROVIDENCE MOSUNNY 18 1 47 N9 30.34R WCI 7 BLOCK ISLAND SUNNY 21 7 53 N10 30.31R WCI 10 WESTERLY SUNNY 20 1 43 N9 30.34R WCI 9 IN MA CITY SKY/WX TMP DP RH WIND PRES REMARKS BOSTON MOSUNNY 17 -5 37 W13 30.34R WCI 4 WORCESTER SUNNY 13 -4 46 NW12 30.26R WCI -1 WESTFIELD SUNNY 16 1 51 N6 30.35R WCI 7 PROVINCETOWN SUNNY 21 5 49 NW13G20 30.32R WCI 9 NANTUCKET SUNNY 24 9 52 N14 30.30R WCI 12 $$ ANZ330-335-338-340-345-350-353-355-271500- COASTAL MARINE OBSERVATIONS STATION/POSITION TIME SKY/WX TEMP WIND PRES VSBY WAVE AIR SEA DIR/SP/G HT/PER (UTC) (F) (DEG/KT/KT) (MB) (MI) (FT/S) NY HARB ENTRANCE 1400 22 38 350/ 12/ 16 1028.3 4/11 4S FIRE IS NOT AVBL 20S FIRE ISLAND 1300 36 1027.2 6/10 23SW MTP 1400 N/A 5/11 HUDSON CANYON NOT AVBL EXECUTION ROCKS NOT AVBL WESTERN LI SOUND NOT AVBL CENTRAL LI SOUND NOT AVBL EASTERN LI SOUND NOT AVBL ROBBINS REEF 1400 18 350/ 11/ 13 1027.6 $$ >>>>>>>>>>>>>>>>>>>>>>>>>>>> KEY <<<<<<<<<<<<<<<<<<<<<<<<<<< > < > SKY/WX - SKY CONDITION/PRESENT WEATHER < > TMP - TEMPERATURE IN FAHRENHEIT < > DP - DEWPOINT IN FAHRENHEIT < > RH - RELATIVE HUMIDITY IN PERCENT < > WIND - DIRECTION AND SPEED IN MPH < > PRES - MEAN SEA LEVEL PRESSURE IN INCHES OF HG < > WCI - WIND CHILL INDEX < > VSB - VISIBILITY IN MILES < > HX - HEAT INDEX < > TC - TEMPERATURE IN CELSIUS < > VRB - VARIABLE WIND DIRECTION < > < >>>>>>>>>>>>>>>>>>>>>>>>>>>> KEY <<<<<<<<<<<<<<<<<<<<<<<<<<<

USA.gov is the U.S. government's official web portal to all federal, state and local government web resources and services.